Overview Statistics Trail Chart Weather Telemetry Raw packets
 

This is the latest recevied weather packets stored in our database for station/object KI4NG. If no packets are shown the sender has not sent any weather packets the latest 10 day(s).

<< 51 52 53 54 55 56 57 >>
Time Temp. Humidity Pressure Rain* Wind** Luminosity Snow
1788274242 28.89° C 70% 1023.7 hPa 0 mm - 619 W/m² -
1788273939 29.44° C 71% 1023.6 hPa 0 mm - 610 W/m² -
1788273633 28.89° C 73% 1023.6 hPa 0 mm - 592 W/m² -
1788273329 28.89° C 71% 1023.5 hPa 0 mm - 567 W/m² -
1788273026 28.89° C 74% 1023.5 hPa 0 mm - 552 W/m² -
1788272725 28.33° C 75% 1023.5 hPa 0 mm - 530 W/m² -
1788272415 27.78° C 77% 1023.8 hPa 0 mm - 499 W/m² -
1788272115 27.78° C 77% 1023.7 hPa 0 mm - 445 W/m² -
1788271810 27.22° C 81% 1023.5 hPa 0 mm - 403 W/m² -
1788271509 27.22° C 80% 1023.3 hPa 0 mm - 392 W/m² -
1788271203 26.67° C 83% 1023.5 hPa 0 mm - 374 W/m² -
1788270902 26.67° C 83% 1023.5 hPa 0 mm - 288 W/m² -
1788270598 26.67° C 82% 1023.3 hPa 0 mm - 303 W/m² -
1788270294 26.11° C 86% 1023.5 hPa 0 mm - 321 W/m² -
1788269988 25.56° C 87% 1023.6 hPa 0 mm - 226 W/m² -
1788269687 25° C 86% 1023.4 hPa 0 mm - 282 W/m² -
1788269385 25° C 89% 1023.5 hPa 0 mm - 74 W/m² -
1788269080 24.44° C 88% 1023.5 hPa 0 mm - 217 W/m² -
1788268779 24.44° C 89% 1023.6 hPa 0 mm - 212 W/m² -
1788268479 23.89° C 90% 1023.8 hPa 0 mm - 186 W/m² -
1788268175 23.33° C 91% 1023.5 hPa 0 mm - 184 W/m² -
1788267869 23.33° C 92% 1023.5 hPa 0 mm - 65 W/m² -
1788267567 22.78° C 93% 1023.6 hPa 0 mm - 92 W/m² -
1788267267 22.22° C 94% 1023.6 hPa 0 mm - 58 W/m² -
1788266961 22.22° C 96% 1023.4 hPa 0 mm - 122 W/m² -

* Rain latest hour (hover to see other rain measurements)
** Current wind speed in m/s (hover to see current wind gust speed)